Location: Unspecified
(0.0000°N, 0.0000°E)
Time: 02:36:57
(UTC+01:00)

Cosmos 2263 Rocket - Visible Passes

Search period start: 22 January 2017 00:00
Search period end: 01 February 2017 00:00
Orbit: 822 x 850 km, 71.0° (Epoch: 20 January)

Date Brightness Start Highest point End Pass type
(mag) Time Alt. Az. Time Alt. Az. Time Alt. Az.
22 Jan 2.1 06:05:36 10° SSW 06:11:11 70° WNW 06:16:49 10° N visible
23 Jan 2.1 05:48:52 10° SSW 05:54:29 79° WNW 06:00:09 10° NNE visible
24 Jan 2.1 05:32:10 10° SSW 05:37:48 88° WNW 05:43:27 10° NNE visible
25 Jan 2.1 05:15:28 10° SSW 05:21:06 83° ESE 05:26:46 10° NNE visible
26 Jan 2.7 04:58:47 10° S 05:08:28 19° NNE 05:10:02 10° NNE visible
